Location: Unspecified
(43.8044°N, 11.0278°E)
Time: 22:56:49
(UTC+02:00)

Resurs 1-4 Rocket - Visible Passes

Search period start: 19 April 2014 00:00
Search period end: 29 April 2014 00:00
Orbit: 800 x 815 km, 98.3° (Epoch: 19 April)

Date Brightness Start Highest point End Pass type
(mag) Time Alt. Az. Time Alt. Az. Time Alt. Az.
19 Apr 4.1 04:51:34 10° NE 04:56:00 27° E 05:00:25 10° SSE visible
20 Apr 4.7 04:28:04 10° NE 04:31:21 17° E 04:34:38 10° SE visible
21 Apr 2.3 05:42:02 10° NNE 05:47:19 77° ESE 05:52:35 10° S visible
22 Apr 3.2 05:17:47 10° NNE 05:22:52 47° E 05:27:55 10° S visible
23 Apr 4.0 04:53:46 10° NE 04:58:19 29° E 05:02:50 10° SSE visible
24 Apr 4.7 04:30:12 10° NE 04:33:41 18° E 04:37:09 10° SE visible
25 Apr 5.2 04:08:39 10° E 04:08:57 10° E 04:09:15 10° E visible
25 Apr 2.3 05:44:18 10° NNE 05:49:36 82° ESE 05:54:53 10° SSW visible
26 Apr 3.1 05:20:02 10° NNE 05:25:09 50° E 05:30:16 10° S visible
27 Apr 3.9 04:55:59 10° NE 05:00:37 30° E 05:05:14 10° SSE visible
28 Apr 4.6 04:32:20 10° NE 04:36:00 19° E 04:39:38 10° SE visible
